Location: ??
(35.1715°N, 139.6450°E)
Time: 10:18:33
(UTC+00:00)

Cosmos 2219 Rocket - Pass Details

Date: 05 August 2024
Orbit: 826 x 846 km, 71.0° (Epoch: 14 September)

Event Time Altitude Azimuth Distance (km) Brightness Sun altitude
Exits shadow 16:45:15 63° 28° (NNE) 934 2.5 -31.1°
Drops below altitude 10° 16:49:59 10° 22° (NNE) 2,471 5.5 -30.5°
Sets 16:52:27 0° 22° (NNE) 3,411 6.5 -30.3°
